Home > Weather > Amsterdam > Past weeks

Flag for Netherlands Past Weather in Amsterdam, Netherlands — Yesterday and Last 2 Weeks

Now
64 °F

Clear.


Feels Like: 64 °F
Forecast: 65 / 76 °F
Wind: 6 mph from Northeast

Location: Amsterdam Schiphol Airport

Current Time: Aug 27, 2016 at 3:22:51 AM

Latest Report: Aug 27, 2016 at 2:55 AM


Visibility: 10 mi

Pressure: 30.12 "Hg

Humidity: 88%

Dew Point: 61 °F

Location of AmsterdamLocation

Past Weather in Amsterdam — Graph

°F

Amsterdam Temperature Yesterday

Maximum temperature yesterday: 75 °F (at 12:25 AM)
Minimum temperature yesterday: 64 °F (at 9:55 PM)
Average temperature yesterday: 71 °F

High & Low Weather Summary for the Past Weeks

 TemperatureHumidityPressure
High88 °F (Aug 25, 3:55 PM)100% (Aug 12, 1:55 AM)30.30 "Hg (Aug 12, 1:55 AM)
Low52 °F (Aug 15, 2:25 AM)42% (Aug 23, 5:55 PM)29.74 "Hg (Aug 19, 3:55 PM)
Average66 °F77%30.05 "Hg
* Reported Aug 12 1:25 AM — Aug 27 1:55 AM, Amsterdam, Weather by CustomWeather, © 2016

Note: Actual official high and low records may vary slightly from our data, if they occured in-between our weather recording intervals... More about our weather records

Advertising

Amsterdam Weather History for the Previous 24 Hours

Scroll right to see more
 ConditionsComfort  
Time TempWeatherWind HumidityBarometerVisibility
1:55 AM
Sat, Aug 27
64 °FClear.7 mph88%30.12 "Hg10 mi
1:25 AM64 °FPassing clouds.7 mph88%30.12 "HgN/A
12:55 AM64 °FPassing clouds.7 mph83%30.12 "HgN/A
12:25 AM64 °FClear.7 mph83%30.12 "Hg10 mi
11:55 PM
Fri, Aug 26
64 °FClear.6 mph83%30.12 "Hg10 mi
11:25 PM64 °FPassing clouds.6 mph83%30.12 "HgN/A
10:55 PM66 °FPassing clouds.6 mph78%30.12 "HgN/A
10:25 PM66 °FPassing clouds.6 mph73%30.12 "HgN/A
9:55 PM64 °FPassing clouds.5 mph83%30.09 "HgN/A
9:25 PM66 °FSunny.7 mph78%30.09 "Hg10 mi
8:55 PM66 °FSunny.7 mph78%30.09 "Hg10 mi
8:25 PM68 °FPassing clouds.9 mph73%30.09 "HgN/A
7:55 PM70 °FSunny.8 mph69%30.09 "Hg10 mi
7:25 PM72 °FSunny.9 mph61%30.07 "Hg10 mi
6:55 PM72 °FPassing clouds.8 mph65%30.07 "HgN/A
6:25 PM73 °FPassing clouds.8 mph61%30.07 "HgN/A
5:55 PM73 °FSunny.9 mph61%30.07 "Hg10 mi
5:25 PM75 °FPassing clouds.9 mph61%30.07 "HgN/A
4:55 PM75 °FPassing clouds.8 mph61%30.07 "HgN/A
4:25 PM75 °FPassing clouds.7 mph61%30.07 "HgN/A
3:55 PM75 °FPassing clouds.7 mph57%30.07 "HgN/A
3:25 PM73 °FPassing clouds.8 mph65%30.07 "HgN/A
2:55 PM73 °FSunny.8 mph65%30.07 "Hg10 mi
2:25 PM73 °FSunny.9 mph69%30.07 "Hg10 mi
1:55 PM72 °FSunny.9 mph69%30.07 "Hg10 mi
1:25 PM73 °FSunny.9 mph65%30.04 "Hg10 mi
12:55 PM73 °FSunny.8 mph65%30.04 "Hg10 mi
12:25 PM72 °FSunny.9 mph78%30.04 "Hg10 mi
11:55 AM73 °FPassing clouds.8 mph74%30.01 "HgN/A
11:25 AM73 °FPassing clouds.10 mph74%30.01 "HgN/A
10:55 AM73 °FSunny.8 mph74%30.01 "Hg10 mi
10:25 AM72 °FSunny.5 mph83%29.98 "Hg10 mi
9:55 AM72 °FSunny.6 mph78%29.98 "Hg10 mi
9:25 AM70 °FPassing clouds.15 mph83%29.98 "HgN/A
8:55 AM70 °FPassing clouds.15 mph88%29.98 "Hg5 mi
8:25 AM70 °FPassing clouds.13 mph83%29.95 "Hg4 mi
7:55 AM68 °FFog.3 mph88%29.95 "Hg2 mi
7:25 AM66 °FFog.2 mph94%29.92 "Hg2 mi
6:55 AM66 °FFog.8 mph94%29.95 "Hg3 mi
6:25 AM66 °FFog.8 mph88%29.92 "Hg3 mi
5:55 AM66 °FFog.5 mph88%29.92 "Hg3 mi
5:25 AM68 °FFog.9 mph88%29.92 "Hg3 mi
4:55 AM70 °FClear.8 mph88%29.92 "Hg4 mi
4:25 AM70 °FClear.3 mph88%29.89 "Hg5 mi
3:55 AM70 °FClear.6 mph88%29.89 "Hg10 mi
3:25 AM70 °FPassing clouds.3 mph88%29.89 "HgN/A
Weather by CustomWeather, © 2016

See weather overviewHow to use our weather pages